Zurück zum Katalog

SL-16 DEB

AktivLEO
NORAD 22392·DEBRIS·🇷🇺 Russia

Gestartet Dec 25, 1992 von Baikonur Cosmodrome

Loading…

Nächste Überflüge (nächste 24 Stunden)

TLE

AktuellSource: Space-Track

Epoche: Sep 14, 2026, 07:27 UTC

1 22392U 92093CH  26257.31071968  .00002332  00000-0  23674-3 0  9993
2 22392  70.8834 226.3627 0074021 191.9167 238.3451 14.90110053777063

Verfolge SL-16 DEB in Echtzeit mit AllMySat

Download on the App Store